Weather History for Odessa, TX

Change the Weather History Date:

Tuesday, October 1, 2013

  Actual Average (KMAF) Record (KMAF)
Temperature  
Mean Temperature 77 °F 70 °F  
Max Temperature 93 °F 82 °F 98 °F (1951)
Min Temperature 61 °F 57 °F 42 °F (1966)
Degree Days  
Heating Degree Days 0 1  
Month to date heating degree days 1  
Since 1 July heating degree days 12  
Cooling Degree Days 12 6  
Month to date cooling degree days 6  
Year to date cooling degree days 2185  
Growing Degree Days 27 (Base 50)    
Moisture  
Dew Point 45 °F    
Average Humidity 41    
Maximum Humidity 84    
Minimum Humidity 9    
Precipitation  
Precipitation 0.00 in 0.07 in 0.44 in (1941)
Month to date precipitation 0.07  
Year to date precipitation 11.65  
Sea Level Pressure  
Sea Level Pressure 29.76 in    
Wind  
Wind Speed 8 mph (SSW)    
Max Wind Speed 15 mph    
Max Gust Speed -    
T = Trace of Precipitation, MM = Missing Value Source: NWS Daily Summary

Daily Weather History Graph

Daily Weather History Graph

Search for Another Location

Airport:

Trip Planner

Search our weather history database for the weather conditions in past years. The results will help you decide how hot, cold, wet, or windy it might be!

Date:

Astronomy

Oct. 01, 2013 Rise Set
Actual Time 7:43 AM CDT 7:34 PM CDT
Civil Twilight 7:19 AM CDT 7:58 PM CDT
Nautical Twilight 6:50 AM CDT 8:26 PM CDT
Astronomical Twilight 6:22 AM CDT 8:55 PM CDT
Moon 4:30 AM CDT (10/1) 5:30 PM CDT (10/1)
Length of Visible Light 12h 39m
Length of Day
11h 50m
Waning Crescent, 12% of the Moon is Illuminated
Oct 1
Waning Crescent
Oct 4
New
Oct 11
First Quarter
Oct 18
Full
Oct 26
Last Quarter

Hourly Weather History & Observations

Time (CDT) Temp. Dew Point Humidity Pressure Visibility Wind Dir Wind Speed Gust Speed Precip Events Conditions
12:53 AM 73.0 °F 51.1 °F 46% 29.89 in - South 12.7 mph - N/A   Clear
1:53 AM 72.0 °F 55.0 °F 55% 29.73 in - South 15.0 mph - N/A   Clear
2:53 AM 70.0 °F 57.0 °F 63% 29.74 in - South 9.2 mph - N/A   Clear
3:53 AM 66.9 °F 57.0 °F 70% 29.73 in - South 5.8 mph - N/A   Clear
4:53 AM 66.0 °F 57.9 °F 75% 29.73 in - South 3.5 mph - N/A   Clear
5:53 AM 63.0 °F 57.0 °F 81% 29.74 in - Calm Calm - N/A   Clear
6:53 AM 61.0 °F 55.9 °F 83% 29.75 in - SSE 3.5 mph - N/A   Clear
7:53 AM 62.1 °F 57.0 °F 84% 29.77 in - South 4.6 mph - N/A   Clear
8:53 AM 64.9 °F 57.9 °F 78% 29.79 in - SSW 4.6 mph - N/A   Clear
9:53 AM 72.0 °F 53.1 °F 51% 29.79 in - SW 9.2 mph - N/A   Clear
10:53 AM 77.0 °F 48.0 °F 36% 29.79 in - SSW 6.9 mph - N/A   Clear
11:53 AM 82.0 °F 45.0 °F 27% 29.79 in - SW 6.9 mph - N/A   Clear
12:53 PM 87.1 °F 42.1 °F 21% 29.77 in - Variable 6.9 mph - N/A   Clear
1:53 PM 90.0 °F 33.1 °F 13% 29.75 in - West 5.8 mph - N/A   Clear
2:53 PM 91.0 °F 34.0 °F 13% 29.73 in - SW 9.2 mph - N/A   Clear
3:53 PM 93.0 °F 30.0 °F 11% 29.72 in - WSW 9.2 mph - N/A   Clear
4:53 PM 93.0 °F 28.9 °F 10% 29.71 in - SSW 5.8 mph - N/A   Clear
5:53 PM 93.0 °F 26.1 °F 9% 29.72 in - SW 9.2 mph - N/A   Clear
6:53 PM 91.0 °F 24.1 °F 9% 29.73 in - SSW 8.1 mph - N/A   Clear
7:53 PM 86.0 °F 26.1 °F 11% 29.75 in - South 4.6 mph - N/A   Clear
8:53 PM 80.1 °F 30.0 °F 16% 29.76 in - South 3.5 mph - N/A   Clear
9:53 PM 80.1 °F 42.1 °F 26% 29.78 in - South 10.4 mph - N/A   Clear
10:53 PM 75.9 °F 50.0 °F 40% 29.79 in - SSW 6.9 mph - N/A   Clear
11:53 PM 75.9 °F 55.0 °F 48% 29.80 in - South 12.7 mph - N/A   Clear